Regional Weather Roundup
Issued by NWS

Home | Current Version | Previous Version | Text Only | Print | Product List | Glossary On
Versions: 1 2 3 4 5 6 7 8 9 10 11 12 13 14 15 16 17 18 19 20 21 22 23 24 25 26 27 28 29 30 31 32 33 34 35 36 37 38 39 40 41 42 43 44 45 46 47 48 49 50
000
ASUS45 KREV 241410
RWRNV
NEVADA REGIONAL WEATHER ROUNDUP
NATIONAL WEATHER SERVICE RENO NV
600 AM PST TUE JAN 24 2017

NOTE: "FAIR" INDICATES FEW OR NO CLOUDS BELOW 12,000 FEET WITH NO
SIGNIFICANT WEATHER AND/OR OBSTRUCTIONS TO VISIBILITY.

NVZ001-003-004-241500-
WESTERN NEVADA

CITY           SKY/WX    TMP DP  RH WIND       PRES   REMARKS
RENO           MOCLDY    23  18  81 CALM      29.90R
CARSON CITY    CLOUDY    19  16  86 CALM      29.91R
MINDEN         CLOUDY    16  14  93 SW3       29.91R
PYRAMID LAKE     N/A     34 N/A N/A NW3         N/A
FALLON         FLURRIES  28  25  88 S5        29.89R
LOVELOCK       MOCLDY    20  19  96 CALM      29.89R
HAWTHORNE        N/A    N/A N/A N/A CALM      29.90R
$$

NVZ002-CAZ072-073-241500-
NORTHERN AND CENTRAL SIERRA

CITY           SKY/WX    TMP DP  RH WIND       PRES   REMARKS
S. LAKE TAHOE  CLOUDY    14   9  80 S6        29.83R
TRUCKEE        CLOUDY    14  12  92 NE3       29.86R
SQUAW VLY 8000   N/A     14  12  92 NE2         N/A
SUSANVILLE     CLEAR    N/A N/A N/A E6        29.93R
MAMMOTH LAKES  FAIR      -2  -5  87 W9        29.81R
BRIDGEPORT       N/A     -4  -9  79 CALM      29.81R
$$

NVZ030-031-036-241500-
NORTHERN NEVADA

CITY           SKY/WX    TMP DP  RH WIND       PRES   REMARKS
ELKO           CLOUDY    23  17  78 SW5       29.78R
WINNEMUCCA     CLOUDY    15  13  91 CALM      29.86R
WENDOVER       CLEAR     16   5  62 W6        29.75R
$$

NVZ035-037-241500-
CENTRAL NEVADA

CITY           SKY/WX    TMP DP  RH WIND       PRES   REMARKS
ELY            CLOUDY    -1  -5  82 S12       29.75R WCI -18
EUREKA           N/A     11   7  84 S7        29.78R
$$

NVZ013-014-241500-
SOUTH CENTRAL NEVADA

CITY           SKY/WX    TMP DP  RH WIND       PRES   REMARKS
TONOPAH        CLEAR      6   1  80 N9        29.83R
$$

NVZ017-020-022-241500-
SOUTHERN NEVADA

CITY           SKY/WX    TMP DP  RH WIND       PRES   REMARKS
LAS VEGAS      PTCLDY    38  29  70 CALM      29.84R
N. LAS VEGAS   CLEAR     37  27  67 NW13      29.83R
NELLIS AFB     CLEAR     38  31  74 S10       29.83R
HENDERSON      CLEAR     35  29  78 S12       29.85R
MERCURY        MOCLDY    26  25  96 NW5       29.85R
$$



USA.gov is the U.S. government's official web portal to all federal, state and local government web resources and services.